[[{"header":{"parameterUnit":"m.s-1","parameterCategory":1,"la1":30.2991,"la2":30.254,"lo1":-89.0895,"lo2":-89.0444,"dy":0.0017,"dx":0.0017,"nx":28,"ny":28,"refTime":"2025-03-24T21:00:00:Z","depth":0,"parameterNumber":2,"parameterNumberName":"U-component_of_WINDS"},"data":[0,0,0,0,0,0,0,0,0,0,0,0,0,0,0,0,0,0,0,0,0,0,0,0,0,0,0,0,0,0,0,0,0,0,0,0,0,0,0,0,0,0,0,0,0,0,0,0,0,0,0,0,0,0,0,0,0,0,-0.6948,-0.6949,0,-0.6972,-0.6972,-0.6973,-0.6941,-0.694,-0.6938,-0.6937,-0.6965,-0.6966,-0.6968,0,0,0,0,0,0,0,0,0,0,0,0,0,-0.6877,-0.6879,-0.6948,-0.6949,-0.6949,-0.6972,-0.6972,-0.6973,-0.6941,-0.694,-0.6938,-0.6937,-0.6964,-0.6966,-0.6968,0,0,0,0,0,0,0,0,0,0,0,0,0,-0.6905,-0.6879,-0.6948,-0.6936,-0.6935,-0.6972,-0.6972,-0.6973,-0.6941,-0.6939,-0.6938,-0.6936,-0.6963,-0.6966,-0.6969,-0.702,0,0,-0.6977,-0.6978,0,0,0,0,0,0,0,0,-0.6904,-0.6908,-0.6937,-0.6937,-0.6936,-0.6952,-0.6957,-0.6989,-0.6942,-0.6939,-0.6937,-0.6935,-0.6962,-0.6965,-0.6973,-0.7021,-0.7022,-0.6977,-0.6979,-0.698,-0.6981,0,0,0,0,0,0,0,-0.6902,-0.6907,-0.6958,-0.6938,-0.6937,-0.693,-0.6932,-0.6963,-0.696,-0.6939,-0.6937,-0.694,-0.6961,-0.697,-0.6973,-0.7023,-0.6977,-0.6979,-0.6981,-0.6982,-0.7115,-0.7117,0,0,0,0,0,0,-0.6901,-0.6905,-0.6957,-0.6959,-0.6915,-0.6932,-0.6935,-0.6948,-0.6959,-0.6959,-0.6941,-0.6938,-0.6967,-0.697,-0.6974,-0.7036,-0.698,-0.6982,-0.6984,-0.7113,-0.7115,-0.7117,0,0,0,0,0,0,-0.69,-0.6906,-0.6956,-0.6931,-0.6937,-0.6935,-0.6951,-0.695,-0.6959,-0.6961,-0.6961,-0.6951,-0.6965,-0.697,-0.7009,-0.7036,-0.6984,-0.6986,-0.7111,-0.7114,-0.7116,-0.7159,0,0,0,0,0,0,-0.6898,-0.6906,-0.6925,-0.6932,-0.6939,-0.699,-0.6953,-0.6951,-0.6963,-0.696,-0.697,-0.6971,-0.6964,-0.7005,-0.7011,-0.7039,-0.6988,-0.7108,-0.7112,-0.7115,-0.7155,-0.7163,-0.717,0,0,0,0,0,-0.6895,-0.6937,-0.6926,-0.6932,-0.6962,-0.6991,-0.6995,-0.6987,-0.6966,-0.6985,-0.6987,-0.697,-0.7032,-0.7009,-0.7016,-0.7045,-0.7106,-0.7111,-0.7115,-0.7152,-0.7161,-0.7169,0,0,0,0,0,0,-0.6934,-0.6937,-0.6926,-0.697,-0.6981,-0.6986,-0.7011,-0.6997,-0.7014,-0.701,-0.6999,-0.7002,-0.7043,-0.7048,-0.7022,-0.7095,-0.7066,-0.7072,-0.7091,-0.71,-0.7107,-0.7106,-0.699,0,0,0,0,0,-0.6948,-0.697,-0.6972,-0.7011,-0.7017,-0.7013,-0.7025,-0.7017,-0.7028,-0.7033,-0.7037,-0.7049,-0.707,-0.7085,-0.7106,-0.7155,-0.7157,-0.7178,-0.7185,-0.7191,-0.7197,-0.7224,-0.7233,-0.7131,-0.7131,-0.7131,0,0,-0.6976,-0.6981,-0.6996,-0.7019,-0.7026,-0.7051,-0.7017,-0.7044,-0.7062,-0.7037,-0.7074,-0.7077,-0.7089,-0.7133,-0.7153,-0.7138,-0.7225,-0.7197,-0.7201,-0.7204,-0.7229,-0.7239,-0.7248,-0.7134,-0.7134,-0.7133,0,0,-0.7041,-0.7046,-0.708,-0.7087,-0.7098,-0.7095,-0.7103,-0.711,-0.7111,-0.7147,-0.7128,-0.715,-0.7188,-0.7197,-0.7207,-0.7274,-0.726,-0.7281,-0.732,-0.7346,-0.7354,-0.7361,-0.7386,-0.7395,-0.7287,-0.7287,-0.7287,0,-0.7076,-0.7111,-0.7099,-0.7128,-0.7139,-0.7115,-0.7149,-0.7157,-0.7175,-0.7183,-0.7166,-0.7212,-0.7219,-0.7265,-0.7282,-0.729,-0.7299,-0.7281,-0.7354,-0.7361,-0.7367,-0.7391,-0.74,-0.7289,-0.7289,-0.7289,-0.7289,0,-0.7154,-0.7179,-0.7204,-0.7221,-0.7234,-0.7265,-0.7258,-0.7274,-0.7264,-0.7263,-0.73,-0.7307,-0.7328,-0.7338,-0.7329,-0.7383,-0.7374,-0.7355,-0.7326,-0.738,-0.7402,-0.7411,-0.7293,-0.7292,-0.7291,-0.7291,0,0,-0.7247,-0.7254,-0.7264,-0.7271,-0.728,-0.73,-0.7329,-0.7349,-0.7363,-0.7375,-0.7401,-0.7432,-0.7415,-0.7426,-0.7418,-0.7441,-0.7495,-0.742,-0.742,-0.7435,-0.7555,-0.757,-0.7581,-0.7485,-0.7486,-0.7488,-0.7555,0,-0.7312,-0.7363,-0.7353,-0.7403,-0.7426,-0.7403,-0.743,-0.7439,-0.7438,-0.7458,-0.7457,-0.748,-0.7455,-0.7462,-0.7483,-0.7484,-0.7519,-0.7479,-0.751,-0.7511,-0.7509,-0.7592,-0.7609,-0.7672,-0.7563,-0.7565,-0.7566,0,-0.7397,-0.7411,-0.7464,-0.7469,-0.7478,-0.7502,-0.7519,-0.7537,-0.7547,-0.7545,-0.7557,-0.7544,-0.7574,-0.7543,-0.7585,-0.7557,-0.7569,-0.7571,-0.7574,-0.7578,-0.7543,-0.76,-0.7692,-0.7702,-0.7579,-0.7578,-0.7577,0,-0.746,-0.7492,-0.7528,-0.7535,-0.7541,-0.7559,-0.7562,-0.757,-0.7582,-0.7597,-0.7605,-0.7624,-0.7634,-0.7649,-0.7642,-0.7619,-0.7686,-0.7653,-0.7686,-0.7686,-0.7703,-0.7702,-0.7799,-0.7708,-0.7707,-0.7707,-0.7707,0,-0.7536,-0.757,-0.7557,-0.7579,-0.7616,-0.7603,-0.764,-0.7641,-0.7648,-0.767,-0.7651,-0.7673,-0.7661,-0.7682,-0.7677,-0.7713,-0.7717,-0.7717,-0.7716,-0.772,-0.772,-0.7729,-0.7725,-0.771,-0.7709,-0.7709,-0.7708,0,-0.7615,-0.7607,-0.7645,-0.7647,-0.7649,-0.7676,-0.7678,-0.7699,-0.7696,-0.7725,-0.7731,-0.7726,-0.775,-0.7744,-0.777,-0.7766,-0.7812,-0.7804,-0.7809,-0.7807,-0.7841,-0.7838,-0.7948,-0.7962,-0.786,-0.7861,-0.7862,0,-0.7664,-0.769,-0.7694,-0.7707,-0.7712,-0.7734,-0.7746,-0.7733,-0.7747,-0.7759,-0.7779,-0.78,-0.7817,-0.7856,-0.7855,-0.7875,-0.7868,-0.7905,-0.7872,-0.7875,-0.7871,-0.787,-0.7873,-0.7913,-0.7914,-0.7915,-0.7916,0,-0.7754,-0.7749,-0.7767,-0.7783,-0.7798,-0.781,-0.7821,-0.7833,-0.7821,-0.7837,-0.7861,-0.7874,-0.7899,-0.7921,-0.7939,-0.7943,-0.7928,-0.7926,-0.7935,-0.7941,-0.7943,-0.7943,-0.7829,-0.7924,-0.7923,-0.7923,-0.7922,-0.7922,-0.7821,-0.7842,-0.7848,-0.7869,-0.7875,-0.7885,-0.7905,-0.7904,-0.7923,-0.7942,-0.7933,-0.796,-0.7969,-0.7991,-0.7997,-0.8019,-0.8005,-0.8017,-0.8021,-0.8024,-0.8029,-0.7937,-0.8022,-0.8021,-0.8021,-0.8021,-0.8021,0,-0.7911,-0.7913,-0.7932,-0.7947,-0.7963,-0.7945,-0.7956,-0.7971,-0.7995,-0.8003,-0.8019,-0.8046,-0.8067,-0.8067,-0.8087,-0.8104,-0.8098,-0.811,-0.811,-0.8111,-0.804,-0.8031,-0.8115,-0.8115,-0.8115,-0.8115,-0.8115,-0.8115,-0.796,-0.7995,-0.799,-0.8028,-0.803,-0.8056,-0.8064,-0.8073,-0.808,-0.811,-0.8127,-0.8126,-0.8132,-0.8152,-0.817,-0.817,-0.8179,-0.8194,-0.8191,-0.8125,-0.8116,-0.8107,-0.8099,-0.8195,-0.8195,-0.826,-0.8261,-0.8261]},{"header":{"parameterUnit":"m.s-1","parameterCategory":1,"la1":30.2991,"la2":30.254,"lo1":-89.0895,"lo2":-89.0444,"dy":0.0017,"dx":0.0017,"nx":28,"ny":28,"refTime":"2025-03-24T21:00:00:Z","depth":0,"parameterNumber":3,"parameterNumberName":"V-component_of_WINDS"},"data":[0,0,0,0,0,0,0,0,0,0,0,0,0,0,0,0,0,0,0,0,0,0,0,0,0,0,0,0,0,0,0,0,0,0,0,0,0,0,0,0,0,0,0,0,0,0,0,0,0,0,0,0,0,0,0,0,0,0,-1.3357,-1.3358,0,-1.3445,-1.3446,-1.3447,-1.3469,-1.3468,-1.3468,-1.3467,-1.3556,-1.3559,-1.3562,0,0,0,0,0,0,0,0,0,0,0,0,0,-1.3207,-1.321,-1.3357,-1.3358,-1.3359,-1.3445,-1.3446,-1.3447,-1.3469,-1.3468,-1.3468,-1.3467,-1.3555,-1.3559,-1.3562,0,0,0,0,0,0,0,0,0,0,0,0,0,-1.3281,-1.3211,-1.3356,-1.338,-1.3383,-1.3444,-1.3446,-1.3447,-1.3469,-1.3468,-1.3467,-1.3467,-1.3554,-1.3559,-1.3563,-1.3606,0,0,-1.3576,-1.3578,0,0,0,0,0,0,0,0,-1.3277,-1.3287,-1.3376,-1.3379,-1.3382,-1.3445,-1.3426,-1.3501,-1.3469,-1.3436,-1.3467,-1.3466,-1.352,-1.3527,-1.3545,-1.361,-1.3614,-1.3576,-1.3579,-1.3581,-1.3582,0,0,0,0,0,0,0,-1.3272,-1.3283,-1.3391,-1.3377,-1.3381,-1.3386,-1.3396,-1.344,-1.3482,-1.3439,-1.3441,-1.3451,-1.3522,-1.3541,-1.3548,-1.3616,-1.3576,-1.358,-1.3583,-1.3585,-1.3721,-1.3722,0,0,0,0,0,0,-1.3263,-1.3279,-1.3389,-1.3394,-1.3326,-1.339,-1.34,-1.3426,-1.3481,-1.3489,-1.3452,-1.3452,-1.3534,-1.3543,-1.3551,-1.3606,-1.3581,-1.3585,-1.3587,-1.372,-1.3722,-1.3723,0,0,0,0,0,0,-1.3259,-1.3272,-1.3385,-1.3337,-1.3352,-1.3393,-1.3421,-1.3428,-1.3447,-1.3491,-1.3498,-1.3464,-1.3534,-1.3545,-1.3593,-1.3609,-1.3587,-1.3591,-1.3719,-1.3721,-1.3722,-1.3716,0,0,0,0,0,0,-1.3255,-1.3271,-1.3288,-1.3337,-1.3354,-1.3426,-1.3422,-1.343,-1.3455,-1.3456,-1.3505,-1.3512,-1.3534,-1.3586,-1.3597,-1.3615,-1.3594,-1.3718,-1.372,-1.3722,-1.3715,-1.3717,-1.3719,0,0,0,0,0,-1.325,-1.3282,-1.3289,-1.3302,-1.3376,-1.3426,-1.3436,-1.3461,-1.3456,-1.3474,-1.3502,-1.351,-1.3606,-1.3591,-1.3603,-1.3623,-1.3717,-1.3719,-1.3721,-1.3714,-1.3717,-1.3719,0,0,0,0,0,0,-1.3234,-1.3289,-1.3297,-1.3347,-1.3382,-1.343,-1.3453,-1.3463,-1.35,-1.35,-1.3529,-1.354,-1.3586,-1.3609,-1.3591,-1.3668,-1.3661,-1.3666,-1.3651,-1.3654,-1.3656,-1.365,-1.3598,0,0,0,0,0,-1.3236,-1.3272,-1.3319,-1.3358,-1.3375,-1.3411,-1.3434,-1.345,-1.3488,-1.3502,-1.3534,-1.357,-1.3608,-1.3632,-1.3669,-1.3718,-1.3729,-1.3738,-1.374,-1.3741,-1.3745,-1.3773,-1.3778,-1.373,-1.373,-1.373,0,0,-1.3241,-1.3276,-1.3297,-1.3356,-1.3385,-1.3422,-1.3423,-1.3462,-1.349,-1.3508,-1.3556,-1.358,-1.3622,-1.367,-1.3693,-1.3691,-1.3761,-1.3744,-1.3745,-1.3748,-1.3776,-1.378,-1.3784,-1.3732,-1.3732,-1.3731,0,0,-1.327,-1.3299,-1.3336,-1.3365,-1.3409,-1.3433,-1.3441,-1.3489,-1.3506,-1.3553,-1.3568,-1.3601,-1.3666,-1.3696,-1.3719,-1.3759,-1.3768,-1.377,-1.3781,-1.3808,-1.3811,-1.3815,-1.3829,-1.3834,-1.3774,-1.3774,-1.3774,0,-1.327,-1.3327,-1.3353,-1.3391,-1.3417,-1.3436,-1.3473,-1.35,-1.3554,-1.3571,-1.3568,-1.365,-1.3679,-1.3735,-1.3745,-1.3763,-1.3774,-1.3765,-1.3809,-1.3813,-1.3816,-1.383,-1.3836,-1.3774,-1.3774,-1.3774,-1.3774,0,-1.3325,-1.3364,-1.3388,-1.344,-1.3469,-1.3506,-1.3538,-1.3563,-1.3577,-1.3601,-1.365,-1.3686,-1.3731,-1.3746,-1.376,-1.3804,-1.3801,-1.3803,-1.3797,-1.382,-1.3834,-1.384,-1.3774,-1.3774,-1.3774,-1.3774,0,0,-1.3346,-1.3413,-1.3421,-1.3445,-1.3496,-1.3526,-1.3564,-1.3609,-1.363,-1.3667,-1.37,-1.3754,-1.3757,-1.3783,-1.3801,-1.3824,-1.3854,-1.3823,-1.3825,-1.3828,-1.3905,-1.3904,-1.3909,-1.386,-1.3861,-1.3862,-1.3902,0,-1.3381,-1.345,-1.3476,-1.3533,-1.3569,-1.3587,-1.3621,-1.3655,-1.3679,-1.3713,-1.3738,-1.3777,-1.3777,-1.3793,-1.3817,-1.3845,-1.387,-1.3842,-1.3891,-1.3893,-1.388,-1.3917,-1.3915,-1.3951,-1.3907,-1.3908,-1.3909,0,-1.3431,-1.3468,-1.3529,-1.3575,-1.3592,-1.3621,-1.3664,-1.3697,-1.3736,-1.3751,-1.3781,-1.3797,-1.3838,-1.3829,-1.3886,-1.3867,-1.3888,-1.3905,-1.3907,-1.3913,-1.3902,-1.3924,-1.3962,-1.3968,-1.3918,-1.3917,-1.3916,0,-1.344,-1.3506,-1.3551,-1.3571,-1.3626,-1.3646,-1.367,-1.3709,-1.3734,-1.3772,-1.3789,-1.383,-1.3853,-1.3885,-1.3912,-1.3903,-1.3966,-1.396,-1.398,-1.398,-1.3993,-1.3992,-1.4036,-1.4006,-1.4006,-1.4006,-1.4006,0,-1.3476,-1.3513,-1.3556,-1.3584,-1.3625,-1.3654,-1.3694,-1.3719,-1.3753,-1.3786,-1.3805,-1.3835,-1.3868,-1.3903,-1.3924,-1.3968,-1.3978,-1.3992,-1.3997,-1.399,-1.3989,-1.4005,-1.4003,-1.4007,-1.4007,-1.4007,-1.4006,0,-1.3494,-1.3524,-1.3575,-1.3623,-1.3636,-1.3664,-1.3705,-1.3733,-1.3757,-1.3799,-1.381,-1.3848,-1.389,-1.392,-1.3973,-1.3988,-1.4035,-1.404,-1.4022,-1.4024,-1.4043,-1.4041,-1.41,-1.4109,-1.4073,-1.4073,-1.4073,0,-1.3515,-1.3544,-1.3595,-1.3619,-1.3643,-1.368,-1.3706,-1.3735,-1.3762,-1.3809,-1.3831,-1.3874,-1.3911,-1.3977,-1.4009,-1.405,-1.4056,-1.4074,-1.4063,-1.4055,-1.4057,-1.4055,-1.4058,-1.4076,-1.4076,-1.4076,-1.4076,0,-1.355,-1.3564,-1.3601,-1.3644,-1.3674,-1.3709,-1.3744,-1.3762,-1.3798,-1.3826,-1.387,-1.3898,-1.3953,-1.3996,-1.404,-1.4065,-1.4077,-1.408,-1.4087,-1.408,-1.4069,-1.4076,-1.4027,-1.4078,-1.4078,-1.4078,-1.4078,-1.4078,-1.357,-1.3597,-1.3637,-1.3678,-1.3708,-1.374,-1.3769,-1.3797,-1.3833,-1.3881,-1.3896,-1.3941,-1.398,-1.4041,-1.4066,-1.4101,-1.41,-1.411,-1.4113,-1.4115,-1.4115,-1.4063,-1.411,-1.411,-1.411,-1.411,-1.411,0,-1.3606,-1.3633,-1.3671,-1.3719,-1.3752,-1.376,-1.38,-1.3826,-1.3865,-1.3901,-1.3936,-1.3986,-1.4028,-1.4064,-1.4107,-1.4128,-1.4135,-1.4139,-1.4138,-1.4143,-1.4113,-1.4103,-1.4133,-1.4133,-1.4133,-1.4133,-1.4133,-1.4133,-1.3629,-1.3674,-1.3693,-1.3753,-1.378,-1.3824,-1.3846,-1.3876,-1.3905,-1.396,-1.3995,-1.4018,-1.4054,-1.41,-1.4138,-1.4148,-1.4163,-1.4166,-1.4176,-1.4148,-1.4145,-1.4143,-1.4133,-1.4169,-1.4169,-1.4203,-1.4204,-1.4204]}]]